When you browse on this site, cookies collect data to enhance your experience and personalize the content and advertising you see.
Visit our Privacy Policy to learn more. By continuing to use the site, you agree to this use of cookies and data.
  • In Romania
  • List of Countries
  • For 7 days
  • Water Temperature
  • Weather Map
  • Weather Widgets
  • user-avatar
    Login

    Hourly Weather Salzburg

    Today, 21 August, Wednesday

    Time Temperature Precipitation Wind Pressure Humidity
    00:00 +9°C° 0.4 mm 2 mps 632 mmHg 98%
    01:00 +8°C° 0.4 mm 2 mps 632 mmHg 98%
    02:00 +7°C° 1 mm 2 mps 632 mmHg 99%
    03:00 +7°C° 1 mm 2 mps 632 mmHg 99%
    04:00 +7°C° 1 mm 1 mps 632 mmHg 99%
    05:00 +8°C° 1.1 mm 1 mps 632 mmHg 99%
    06:00 +8°C° 1.1 mm 1 mps 632 mmHg 98%
    07:00 +7°C° 1.1 mm 0 mps 632 mmHg 98%
    08:00 +8°C° 0.1 mm 1 mps 633 mmHg 96%
    09:00 +9°C° 0.1 mm 1 mps 633 mmHg 93%
    10:00 +10°C° 0.1 mm 1 mps 633 mmHg 91%
    11:00 +11°C° 0.1 mm 1 mps 633 mmHg 88%
    12:00 +11°C° 0.1 mm 1 mps 633 mmHg 85%
    13:00 +12°C° 0.1 mm 1 mps 633 mmHg 82%
    14:00 +12°C° 0.1 mm 1 mps 633 mmHg 81%
    15:00 +12°C° 0.1 mm 1 mps 633 mmHg 79%
    16:00 +13°C° 0.1 mm 1 mps 633 mmHg 78%
    17:00 +12°C° 0.1 mm 1 mps 633 mmHg 82%
    18:00 +11°C° 0.1 mm 1 mps 633 mmHg 87%
    19:00 +10°C° 0.1 mm 0 mps 633 mmHg 91%
    20:00 +9°C° 0.1 mm 0 mps 633 mmHg 93%
    21:00 +8°C° 0.1 mm 0 mps 632 mmHg 95%
    22:00 +8°C° 0.1 mm 0 mps 632 mmHg 96%
    23:00 +8°C° 0.2 mm 0 mps 632 mmHg 96%

    Tomorrow, 22 August, Thursday

    Time Temperature Precipitation Wind Pressure Humidity
    00:00 +8°C° 0.2 mm 1 mps 632 mmHg 96%
    01:00 +8°C° 0.2 mm 1 mps 632 mmHg 96%
    02:00 +8°C° 0 mm 1 mps 632 mmHg 96%
    03:00 +7°C° 0 mm 0 mps 631 mmHg 96%
    04:00 +7°C° 0 mm 0 mps 631 mmHg 96%
    05:00 +8°C° 0 mm 0 mps 631 mmHg 95%
    06:00 +9°C° 0 mm 0 mps 632 mmHg 94%
    07:00 +10°C° 0 mm 0 mps 632 mmHg 93%
    08:00 +13°C° 0.1 mm 1 mps 633 mmHg 86%
    09:00 +15°C° 0.1 mm 1 mps 634 mmHg 79%
    10:00 +18°C° 0.1 mm 1 mps 635 mmHg 71%
    11:00 +19°C° 0.4 mm 1 mps 635 mmHg 69%
    12:00 +19°C° 0.4 mm 1 mps 635 mmHg 67%
    13:00 +20°C° 0.4 mm 1 mps 635 mmHg 65%
    14:00 +19°C° 0.8 mm 1 mps 634 mmHg 71%
    15:00 +19°C° 0.8 mm 1 mps 634 mmHg 76%
    16:00 +18°C° 0.8 mm 1 mps 633 mmHg 81%
    17:00 +16°C° 0.6 mm 1 mps 633 mmHg 85%
    18:00 +14°C° 0.6 mm 1 mps 633 mmHg 90%
    19:00 +13°C° 0.6 mm 1 mps 632 mmHg 94%
    20:00 +11°C° 0.1 mm 0 mps 633 mmHg 94%
    21:00 +11°C° 0.1 mm 0 mps 633 mmHg 94%
    22:00 +10°C° 0.1 mm 0 mps 633 mmHg 95%
    23:00 +10°C° 0 mm 0 mps 633 mmHg 94%

    Day after tomorrow, 23 August, Friday

    Time Temperature Precipitation Wind Pressure Humidity
    00:00 +9°C° 0 mm 0 mps 632 mmHg 94%
    01:00 +9°C° 0 mm 0 mps 632 mmHg 94%
    02:00 +9°C° 0 mm 0 mps 632 mmHg 94%
    03:00 +9°C° 0 mm 0 mps 632 mmHg 94%
    04:00 +10°C° 0 mm 1 mps 632 mmHg 94%
    05:00 +10°C° 0 mm 0 mps 632 mmHg 93%
    06:00 +10°C° 0 mm 0 mps 632 mmHg 91%
    07:00 +11°C° 0 mm 0 mps 633 mmHg 90%
    08:00 +15°C° 0 mm 1 mps 634 mmHg 81%
    09:00 +18°C° 0 mm 1 mps 634 mmHg 73%
    10:00 +20°C° 0 mm 1 mps 635 mmHg 64%
    11:00 +20°C° 0.4 mm 1 mps 635 mmHg 66%
    12:00 +21°C° 0.4 mm 1 mps 635 mmHg 67%
    13:00 +21°C° 0.4 mm 1 mps 635 mmHg 68%
    14:00 +20°C° 1.1 mm 1 mps 634 mmHg 72%
    15:00 +20°C° 1.1 mm 1 mps 634 mmHg 76%
    16:00 +19°C° 1.1 mm 1 mps 633 mmHg 80%
    17:00 +18°C° 0.6 mm 1 mps 633 mmHg 84%
    18:00 +15°C° 0.6 mm 1 mps 632 mmHg 88%
    19:00 +14°C° 0.6 mm 1 mps 632 mmHg 92%
    20:00 +13°C° 0.2 mm 1 mps 632 mmHg 92%
    21:00 +13°C° 0.2 mm 1 mps 632 mmHg 91%
    22:00 +12°C° 0.2 mm 1 mps 632 mmHg 91%
    23:00 +12°C° 0 mm 1 mps 631 mmHg 91%

    24 August, Saturday

    Time Temperature Precipitation Wind Pressure Humidity
    00:00 +11°C° 0 mm 1 mps 631 mmHg 90%
    01:00 +11°C° 0 mm 1 mps 631 mmHg 90%
    02:00 +11°C° 0 mm 1 mps 631 mmHg 90%
    03:00 +11°C° 0 mm 1 mps 630 mmHg 89%
    04:00 +11°C° 0 mm 1 mps 630 mmHg 88%
    05:00 +12°C° 0 mm 1 mps 631 mmHg 87%
    06:00 +12°C° 0 mm 1 mps 631 mmHg 86%
    07:00 +13°C° 0 mm 1 mps 631 mmHg 84%
    08:00 +16°C° 0 mm 1 mps 632 mmHg 75%
    09:00 +19°C° 0 mm 1 mps 633 mmHg 67%
    10:00 +19°C° 0 mm 0 mps 634 mmHg 58%
    11:00 +22°C° 0.1 mm 1 mps 634 mmHg 56%
    12:00 +22°C° 0.1 mm 1 mps 634 mmHg 55%
    13:00 +23°C° 0.1 mm 1 mps 634 mmHg 53%
    14:00 +22°C° 0.9 mm 1 mps 633 mmHg 61%
    15:00 +21°C° 0.9 mm 1 mps 632 mmHg 69%
    16:00 +20°C° 0.9 mm 1 mps 632 mmHg 77%
    17:00 +18°C° 1.4 mm 1 mps 631 mmHg 82%
    18:00 +15°C° 1.4 mm 1 mps 630 mmHg 87%
    19:00 +13°C° 1.4 mm 1 mps 630 mmHg 92%
    20:00 +12°C° 0.2 mm 1 mps 630 mmHg 91%
    21:00 +12°C° 0.2 mm 1 mps 630 mmHg 90%
    22:00 +10°C° 0.2 mm 2 mps 630 mmHg 89%
    23:00 +10°C° 0 mm 2 mps 630 mmHg 89%

    25 August, Sunday

    Time Temperature Precipitation Wind Pressure Humidity
    00:00 +10°C° 0 mm 2 mps 629 mmHg 89%
    01:00 +10°C° 0 mm 2 mps 629 mmHg 88%
    02:00 +11°C° 0 mm 1 mps 629 mmHg 88%
    03:00 +11°C° 0 mm 1 mps 629 mmHg 87%
    04:00 +10°C° 0 mm 1 mps 629 mmHg 86%
    05:00 +12°C° 0 mm 1 mps 629 mmHg 84%
    06:00 +13°C° 0 mm 1 mps 630 mmHg 83%
    07:00 +14°C° 0 mm 1 mps 630 mmHg 81%
    08:00 +16°C° 0 mm 1 mps 631 mmHg 72%
    09:00 +19°C° 0 mm 1 mps 632 mmHg 63%
    10:00 +20°C° 0 mm 0 mps 633 mmHg 53%
    11:00 +22°C° 0.2 mm 1 mps 633 mmHg 52%
    12:00 +23°C° 0.2 mm 1 mps 633 mmHg 52%
    13:00 +23°C° 0.2 mm 1 mps 633 mmHg 51%
    14:00 +22°C° 1.3 mm 1 mps 632 mmHg 60%
    15:00 +21°C° 1.3 mm 1 mps 632 mmHg 70%
    16:00 +20°C° 1.3 mm 1 mps 632 mmHg 79%
    17:00 +18°C° 1.7 mm 1 mps 631 mmHg 83%
    18:00 +16°C° 1.7 mm 1 mps 631 mmHg 88%
    19:00 +14°C° 1.7 mm 1 mps 630 mmHg 92%
    20:00 +13°C° 0.5 mm 1 mps 630 mmHg 92%
    21:00 +13°C° 0.5 mm 1 mps 630 mmHg 93%
    22:00 +12°C° 0.5 mm 1 mps 631 mmHg 93%
    23:00 +12°C° 0.3 mm 1 mps 630 mmHg 92%

    26 August, Monday

    Time Temperature Precipitation Wind Pressure Humidity
    00:00 +12°C° 0.3 mm 1 mps 630 mmHg 91%
    01:00 +11°C° 0.3 mm 1 mps 630 mmHg 91%
    02:00 +11°C° 0 mm 1 mps 630 mmHg 91%
    03:00 +11°C° 0 mm 1 mps 630 mmHg 91%
    04:00 +11°C° 0 mm 1 mps 630 mmHg 91%
    05:00 +12°C° 0 mm 1 mps 630 mmHg 90%
    06:00 +12°C° 0 mm 1 mps 631 mmHg 89%
    07:00 +13°C° 0 mm 1 mps 631 mmHg 88%
    08:00 +15°C° 0.4 mm 1 mps 632 mmHg 82%
    09:00 +18°C° 0.4 mm 1 mps 633 mmHg 77%
    10:00 +20°C° 0.4 mm 1 mps 634 mmHg 71%
    11:00 +20°C° 1.2 mm 1 mps 634 mmHg 70%
    12:00 +20°C° 1.2 mm 1 mps 634 mmHg 69%
    13:00 +21°C° 1.2 mm 1 mps 634 mmHg 69%
    14:00 +20°C° 0.6 mm 1 mps 634 mmHg 70%
    15:00 +20°C° 0.6 mm 1 mps 633 mmHg 72%
    16:00 +20°C° 0.6 mm 1 mps 633 mmHg 73%
    17:00 +18°C° 0.1 mm 1 mps 633 mmHg 79%
    18:00 +15°C° 0.1 mm 1 mps 632 mmHg 86%
    19:00 +12°C° 0.1 mm 0 mps 631 mmHg 92%
    20:00 +12°C° 0 mm 0 mps 632 mmHg 92%
    21:00 +12°C° 0 mm 1 mps 632 mmHg 92%
    22:00 +12°C° 0 mm 1 mps 632 mmHg 92%
    23:00 +11°C° 0 mm 1 mps 632 mmHg 92%
    Show more